Flag for Spain Weather past 2 weeks in Valladolid, Spain

Now
48 °F

Overcast.


Feels Like: 43 °F
Forecast: 47 / 62 °F
Wind: 13 mph from West

Location: Valladolid / Villanubla

Current Time: Feb 28, 2015 at 9:07:13 PM

Latest Report: Feb 28, 2015 at 8:30 PM


Visibility: N/A

Pressure: 30.24 "Hg

Humidity: 94%

Dew point: 46 °F

Location of ValladolidLocation

Historic Weather in Valladolid — Graph

°F

Valladolid temperature yesterday

Maximum temperature yesterday: 52 °F (at 4:30 PM)
Minimum temperature yesterday: 32 °F (at 8:00 AM)
Average temperature yesterday: 44 °F

Past Weeks' High & Low Weather Summary

 TemperatureHumidityPressure
High57 °F (Feb 26, 3:30 PM)100% (Feb 13, 8:00 PM)30.54 "Hg (Feb 13, 8:00 PM)
Low25 °F (Feb 19, 7:30 AM)32% (Feb 27, 6:00 PM)29.80 "Hg (Feb 21, 7:00 AM)
Average44 °F76%30.18 "Hg
* Reported Feb 13 8:00 PM — Feb 28 8:00 PM, Valladolid, Weather by CustomWeather, © 2015

Note: Actual official high and low records may vary slightly from our data, if they occured in-between our weather recording intervals... More about our weather records

Advertising

Valladolid weather history for previous 24 hours

 ConditionsComfort  
Time TempWeatherWind HumidityBarometerVisibility
8:00 PM
Sat, Feb 28
50 °FOvercast.10 mph88%30.24 "HgN/A
7:30 PM52 °FPartly cloudy.13 mph82%30.24 "HgN/A
7:00 PM52 °FBroken clouds.13 mph82%30.24 "HgN/A
6:30 PM54 °FScattered clouds.14 mph77%30.21 "HgN/A
6:00 PM54 °FScattered clouds.20 mph77%30.21 "HgN/A
5:30 PM54 °FBroken clouds.18 mph77%30.21 "HgN/A
5:00 PM54 °FBroken clouds.15 mph77%30.21 "HgN/A
4:30 PM55 °FBroken clouds.16 mph67%30.21 "HgN/A
4:00 PM57 °FBroken clouds.15 mph63%30.21 "HgN/A
3:30 PM57 °FScattered clouds.12 mph63%30.21 "HgN/A
3:00 PM57 °FPassing clouds.14 mph59%30.21 "HgN/A
2:30 PM57 °FPassing clouds.14 mph63%30.21 "HgN/A
2:00 PM55 °FScattered clouds.16 mph59%30.24 "HgN/A
1:30 PM55 °FScattered clouds.16 mph63%30.24 "HgN/A
1:00 PM52 °FScattered clouds.16 mph67%30.27 "HgN/A
12:30 PM50 °FScattered clouds.14 mph71%30.27 "HgN/A
12:00 PM46 °FScattered clouds.15 mph76%30.27 "HgN/A
11:30 AM46 °FScattered clouds.15 mph76%30.27 "HgN/A
11:00 AM45 °FPartly sunny.14 mph81%30.27 "HgN/A
10:30 AM43 °FPartly sunny.12 mph81%30.27 "HgN/A
10:00 AM41 °FSunny.12 mph81%30.27 "Hg10 mi
9:30 AM39 °FSunny.8 mph81%30.27 "Hg10 mi
9:00 AM37 °FSunny.9 mph81%30.27 "Hg10 mi
8:30 AM34 °FSunny.7 mph93%30.24 "Hg10 mi
8:00 AM32 °FPassing clouds.7 mph93%30.24 "HgN/A
7:30 AM32 °FPassing clouds.7 mph93%30.24 "HgN/A
7:00 AM34 °FPassing clouds.2 mph93%30.24 "HgN/A
9:30 PM
Fri, Feb 27
43 °FClear.2 mph57%30.24 "Hg10 mi
9:00 PM43 °FClear.7 mph61%30.27 "Hg10 mi
Weather by CustomWeather, © 2015

See weather overviewHow to use our weather pages